Location: Curicchi
(45.0167°N, 12.0500°E)
Time: 19:00:12
(UTC+00:00)

Cosmos 1869 - Pass Details

Date: 07 June 2020
Orbit: 519 x 563 km, 82.5° (Epoch: 02 July)

Event Time Altitude Azimuth Distance (km) Brightness Sun altitude
Rises 01:25:08 0° 347° (NNW) 2,659 7.5 -15.6°
Reaches altitude 10° 01:27:18 10° 344° (NNW) 1,764 6.5 -15.4°
Maximum altitude 01:31:05 58° 265° (W) 610 3.3 -15.0°
Enters shadow 01:33:02 26° 195° (SSW) 1,040 4.2 -14.8°
